Flag for Liechtenstein Weather past 2 weeks in Vaduz, Liechtenstein

Now
32 °F

Chilly.


Feels Like: 32 °F
Forecast: 28 / 39 °F
Wind: 1 mph from West

Location: Vaduz

Current Time: Jan 25, 2015 at 5:38:34 AM

Latest Report: Jan 25, 2015 at 3:00 AM


Visibility: N/A

Pressure: 30.32 "Hg

Humidity: 88%

Dew point: 29 °F

Location of VaduzLocation

Historic Weather in Vaduz — Graph

°F

Vaduz temperature yesterday

Maximum temperature yesterday: 36 °F (at 1:00 PM)
Minimum temperature yesterday: 33 °F (at 7:00 AM)
Average temperature yesterday: 34 °F

Past Weeks' High & Low Weather Summary

 TemperatureHumidityPressure
High62 °F (Jan 13, 3:00 PM)98% (Jan 17, 9:00 AM)30.52 "Hg (Jan 17, 9:00 AM)
Low28 °F (Jan 21, 6:00 AM)15% (Jan 13, 3:00 PM)29.61 "Hg (Jan 16, 7:00 PM)
Average40 °F72%30.05 "Hg
* Reported Jan 10 3:00 AM — Jan 25 3:00 AM, Vaduz, Weather by CustomWeather, © 2014

Note: Actual official high and low records may vary slightly from our data, if they occured in-between our weather recording intervals... More about our weather records

Advertising

Vaduz weather history for previous 24 hours

 ConditionsComfort  
Time TempWeatherWind HumidityBarometerVisibility
3:00 AM
Jan 25
32 °FChilly.1 mph88%30.32 "HgN/A
2:00 AM33 °FChilly.2 mph84%30.31 "HgN/A
1:00 AM33 °FSnow. Low clouds.5 mph84%30.30 "Hg2 mi
12:00 AM34 °FChilly.3 mph78%30.29 "HgN/A
11:00 PM
Jan 24
34 °FChilly.No wind78%30.28 "HgN/A
9:00 PM35 °FChilly.3 mph73%30.24 "HgN/A
8:00 PM35 °FChilly.2 mph73%30.23 "HgN/A
7:00 PM35 °FFog.No wind79%30.22 "Hg6 mi
6:00 PM35 °FChilly.1 mph76%30.19 "HgN/A
5:00 PM35 °FChilly.3 mph78%30.17 "HgN/A
4:00 PM36 °FOvercast.3 mph81%30.14 "Hg2 mi
3:00 PM36 °FChilly.5 mph79%30.14 "HgN/A
2:00 PM36 °FChilly.1 mph67%30.14 "HgN/A
1:00 PM36 °FOvercast.3 mph75%30.16 "Hg2 mi
12:00 PM36 °FChilly.2 mph79%30.19 "HgN/A
11:00 AM34 °FChilly.No wind87%30.21 "HgN/A
10:00 AM34 °FFog.1 mph90%30.22 "Hg1 mi
9:00 AM33 °FChilly.No wind91%30.23 "HgN/A
8:00 AM33 °FChilly.No wind92%30.23 "HgN/A
7:00 AM33 °FFog.No wind92%30.24 "Hg1 mi
6:00 AM33 °FChilly.1 mph92%30.24 "HgN/A
5:00 AM33 °FChilly.2 mph91%30.24 "HgN/A
Weather by CustomWeather, © 2014

See weather overviewHow to use our weather pages